This is the latest recevied weather packets stored in our database for station/object W6MAF. If no packets are shown the sender has not sent any weather packets the latest 10 day(s).
| Time | Temp. | Humidity | Pressure | Rain* | Wind** | Luminosity | Snow |
|---|---|---|---|---|---|---|---|
| 1777686619 | 20.56° C | 27% | - | 0 mm | 4.02 m/s, 225° | - | - |
| 1777686321 | 20.56° C | 26% | - | 0 mm | 3.58 m/s, 212° | - | - |
| 1777686024 | 21.11° C | 25% | - | 0 mm | 5.81 m/s, 219° | - | - |
| 1777686014 | 21.11° C | 22% | - | 0 mm | 3.13 m/s, 226° | - | - |
| 1777685726 | 21.11° C | 22% | - | 0 mm | 3.13 m/s, 226° | - | - |
| 1777685425 | 21.67° C | 22% | - | 0 mm | 4.92 m/s, 224° | - | - |
| 1777685127 | 22.22° C | 20% | - | 0 mm | 3.13 m/s, 222° | - | - |
| 1777684829 | 22.22° C | 18% | - | 0 mm | 1.79 m/s, 256° | - | - |
| 1777684532 | 22.78° C | 17% | - | 0 mm | 1.34 m/s, 197° | - | - |
| 1777684234 | 22.78° C | 17% | - | 0 mm | 4.02 m/s, 208° | - | - |
| 1777683936 | 22.78° C | 16% | - | 0 mm | 3.13 m/s, 181° | - | - |
| 1777683635 | 23.33° C | 16% | - | 0 mm | 0 m/s | - | - |
| 1777683338 | 23.33° C | 15% | - | 0 mm | 0.89 m/s, 236° | - | - |
| 1777683040 | 23.89° C | 15% | - | 0 mm | 0 m/s | - | - |
| 1777682742 | 23.89° C | 13% | - | 0 mm | 1.34 m/s, 210° | - | - |
| 1777682444 | 23.89° C | 12% | - | 0 mm | 0.89 m/s, 242° | - | - |
| 1777682147 | 24.44° C | 12% | - | 0 mm | 0 m/s | - | - |
| 1777681846 | 24.44° C | 10% | - | 0 mm | 0.89 m/s, 191° | - | - |
| 1777681548 | 24.44° C | 10% | - | 0 mm | 0 m/s | - | - |
| 1777681251 | 25° C | 9% | - | 0 mm | 1.79 m/s, 212° | - | - |
| 1777680953 | 25° C | 8% | - | 0 mm | 0 m/s | - | - |
| 1777680655 | 25° C | 7% | - | 0 mm | 3.58 m/s, 243° | - | - |
| 1777680357 | 25° C | 8% | - | 0 mm | 0.89 m/s, 215° | - | - |
| 1777680056 | 25.56° C | 6% | - | 0 mm | 0 m/s | - | - |
| 1777679758 | 25.56° C | 6% | - | 0 mm | 0.89 m/s, 232° | - | - |
* Rain latest hour (hover to see other rain measurements)
** Current wind speed in m/s (hover to see current wind gust speed)